Tracking 29892 objects as of 21-Nov-2024
HD Live streaming from Space Station
objects crossing your sky now

STARLINK-3925

Track STARLINK-3925 now!
10-day predictions
STARLINK-3925 is classified as:


NORAD ID: 52498
Int'l Code: 2022-049AZ
Perigee: 545.8 km
Apogee: 547.9 km
Inclination: 53.2 °
Period: 95.4 minutes
Semi major axis: 6917 km
RCS: Unknown
Launch date: May 6, 2022
Source: United States (US)
Launch site: AIR FORCE EASTERN TEST RANGE (AFETR)
Your satellite tracking list
Your tracking list is empty




NASA's NSSDC Master Catalog

Two Line Element Set (TLE):
1 52498U 22049AZ  24325.51305139  .00000819  00000-0  69491-4 0  9999
2 52498  53.2168   7.7813 0001486  89.9840 270.1322 15.08853644141106
Source of the keplerian elements: AFSPC